Time,TemperatureF,DewpointF,PressureIn,WindDirection,WindDirectionDegrees,WindSpeedMPH,WindSpeedGustMPH,Humidity,HourlyPrecipIn,Conditions,Clouds,dailyrainin,SoftwareType,DateUTC
2013-04-25 00:52:00,78.0,-99.9,30.11,East,90,21.0,24.0,-999,-99.99,,,-99.99,,2013-04-25 04:52:00,
2013-04-25 01:52:00,78.0,-99.9,30.11,East,90,18.0,22.0,-999,-99.99,,,-99.99,,2013-04-25 05:52:00,
2013-04-25 02:52:00,77.0,-99.9,30.11,East,80,14.0,16.0,-999,-99.99,,,-99.99,,2013-04-25 06:52:00,
2013-04-25 03:53:00,76.0,-99.9,30.09,East,80,14.0,16.0,-999,-99.99,,,-99.99,,2013-04-25 07:53:00,
2013-04-25 04:52:00,77.0,-99.9,30.09,East,100,15.0,20.0,-999,-99.99,,,-99.99,,2013-04-25 08:52:00,
2013-04-25 05:53:00,77.0,-99.9,30.09,ESE,110,16.0,21.0,-999,-99.99,,,-99.99,,2013-04-25 09:53:00,
2013-04-25 06:53:00,77.0,-99.9,30.09,ESE,110,16.0,18.0,-999,-99.99,,,-99.99,,2013-04-25 10:53:00,
2013-04-25 07:52:00,77.0,-99.9,30.12,ESE,110,11.0,14.0,-999,-99.99,,,-99.99,,2013-04-25 11:52:00,
2013-04-25 08:52:00,75.0,-99.9,30.15,ENE,70,9.0,10.0,-999,-99.99,,,-99.99,,2013-04-25 12:52:00,
2013-04-25 09:53:00,75.0,-99.9,30.15,ENE,70,11.0,14.0,-999,-99.99,,,-99.99,,2013-04-25 13:53:00,
2013-04-25 10:52:00,77.0,-99.9,30.16,East,80,11.0,13.0,-999,-99.99,,,-99.99,,2013-04-25 14:52:00,
2013-04-25 11:53:00,78.0,-99.9,30.18,ESE,110,9.0,11.0,-999,-99.99,,,-99.99,,2013-04-25 15:53:00,
2013-04-25 12:53:00,78.0,-99.9,30.17,ESE,120,8.0,10.0,-999,-99.99,,,-99.99,,2013-04-25 16:53:00,
2013-04-25 13:53:00,78.0,-99.9,30.16,SE,130,10.0,13.0,-999,-99.99,,,-99.99,,2013-04-25 17:53:00,
2013-04-25 14:53:00,79.0,-99.9,30.16,SE,130,11.0,14.0,-999,-99.99,,,-99.99,,2013-04-25 18:53:00,
2013-04-25 15:52:00,79.0,-99.9,30.15,SE,130,11.0,14.0,-999,-99.99,,,-99.99,,2013-04-25 19:52:00,
2013-04-25 16:52:00,79.0,-99.9,30.13,SSE,160,8.0,11.0,-999,-99.99,,,-99.99,,2013-04-25 20:52:00,
2013-04-25 17:53:00,80.0,-99.9,30.12,SE,140,8.0,11.0,-999,-99.99,,,-99.99,,2013-04-25 21:53:00,
2013-04-25 18:53:00,79.0,-99.9,30.12,ESE,120,10.0,13.0,-999,-99.99,,,-99.99,,2013-04-25 22:53:00,
2013-04-25 19:52:00,80.0,-99.9,30.13,SE,130,11.0,15.0,-999,-99.99,,,-99.99,,2013-04-25 23:52:00,
2013-04-25 20:52:00,79.0,-99.9,30.13,East,80,17.0,21.0,-999,-99.99,,,-99.99,,2013-04-26 00:52:00,
2013-04-25 21:52:00,77.0,-99.9,30.16,ENE,70,14.0,16.0,-999,-99.99,,,-99.99,,2013-04-26 01:52:00,
2013-04-25 22:52:00,76.0,-99.9,30.18,ENE,70,14.0,17.0,-999,-99.99,,,-99.99,,2013-04-26 02:52:00,
2013-04-25 23:53:00,75.0,-99.9,30.19,ENE,70,11.0,14.0,-999,-99.99,,,-99.99,,2013-04-26 03:53:00,